Regional Weather Roundup
Issued by NWS

Home | Current Version | Previous Version | Text Only | Print | Product List | Glossary On
Versions: 1 2 3 4 5 6 7 8 9 10 11 12 13 14 15 16 17 18 19 20 21 22 23 24 25 26 27
000
ASUS45 KBOI 212210
RWRID

IDAHO REGIONAL WEATHER ROUNDUP
NATIONAL WEATHER SERVICE BOISE ID
400 PM MDT THU SEP 21 2017

NOTE: "FAIR" INDICATES FEW OR NO CLOUDS BELOW 12000 FEET
WITH NO SIGNIFICANT WEATHER AND/OR OBSTRUCTIONS TO VISIBILITY

IDZ012-014-212300-
SOUTHWEST IDAHO


CITY           SKY/WX    TMP DP  RH WIND       PRES   REMARKS
BOISE          PTSUNNY   56  34  43 NW8       29.80F
CALDWELL       FAIR      59  32  36 W10       29.81F
MOUNTAIN HOME  FAIR      56  34  43 N8        29.80F
$$

IDZ016-017-212300-
SOUTHCENTRAL IDAHO


CITY           SKY/WX    TMP DP  RH WIND       PRES   REMARKS
BURLEY         CLOUDY    46  39  76 N6        29.79F
JEROME         PTSUNNY   46  42  86 SW6       29.81F
TWIN FALLS     CLOUDY    46  41  82 W9        29.80F
$$

IDZ019>023-212300-
SOUTHEAST IDAHO


CITY           SKY/WX    TMP DP  RH WIND       PRES   REMARKS
IDAHO FALLS    LGT RAIN  42  38  85 S3        29.84R
POCATELLO      CLOUDY    42  40  92 E6        29.83S
REXBURG        CLOUDY    41  37  86 CALM      29.83S
$$

IDZ006-010-011-018-031-032-212300-
CENTRAL IDAHO MOUNTAINS


CITY           SKY/WX    TMP DP  RH WIND       PRES   REMARKS
MCCALL         CLOUDY    47  32  56 W9        29.80R
HAILEY         DRIZZLE   43  37  81 SE3       29.82S
STANLEY          N/A     39  33  79 NW5       29.82R
SALMON         CLOUDY    51  29  42 CALM      29.81F
CHALLIS        CLOUDY    49  26  41 N6        29.78R
$$

IDZ002-004-006-007-026-212300-
NORTHERN IDAHO


CITY           SKY/WX    TMP DP  RH WIND       PRES   REMARKS
LEWISTON       PTSUNNY   60  41  49 NW8       29.88S
LOWELL           N/A     58  40  51 VRB5      29.89R
COEUR D`ALENE  CLOUDY    48  41  76 N3        29.92R
MULLAN PASS    CLOUDY    34  31  88 CALM      29.88R
$$




USA.gov is the U.S. government's official web portal to all federal, state and local government web resources and services.